This is the latest recevied weather packets stored in our database for station/object HS5BOG-13. If no packets are shown the sender has not sent any weather packets the latest 10 day(s).
| Time | Temp. | Humidity | Pressure | Rain* | Wind** | Luminosity | Snow |
|---|---|---|---|---|---|---|---|
| 1778076194 | 32.22° C | 63% | 989.3 hPa | - | - | - | - |
| 1778075588 | 32.22° C | 62% | 989.2 hPa | - | - | - | - |
| 1778074983 | 32.78° C | 61% | 989.1 hPa | - | - | - | - |
| 1778074377 | 32.78° C | 62% | 989 hPa | - | - | - | - |
| 1778073772 | 32.78° C | 66% | 988.7 hPa | - | - | - | - |
| 1778073166 | 32.78° C | 67% | 988.5 hPa | - | - | - | - |
| 1778072561 | 32.78° C | 67% | 988.5 hPa | - | - | - | - |
| 1778071955 | 32.78° C | 64% | 988.5 hPa | - | - | - | - |
| 1778071350 | 32.78° C | 64% | 988.3 hPa | - | - | - | - |
| 1778070744 | 32.78° C | 65% | 988.3 hPa | - | - | - | - |
| 1778070138 | 32.78° C | 63% | 988.2 hPa | - | - | - | - |
| 1778069552 | 32.78° C | 63% | 988.1 hPa | - | - | - | - |
| 1778068924 | 32.78° C | 60% | 988 hPa | - | - | - | - |
| 1778068318 | 32.78° C | 60% | 987.8 hPa | - | - | - | - |
| 1778067713 | 32.78° C | 59% | 987.6 hPa | - | - | - | - |
| 1778067107 | 32.78° C | 58% | 987.4 hPa | - | - | - | - |
| 1778066502 | 32.78° C | 57% | 987.4 hPa | - | - | - | - |
| 1778065896 | 32.78° C | 57% | 987.3 hPa | - | - | - | - |
| 1778065290 | 32.78° C | 58% | 987.4 hPa | - | - | - | - |
| 1778064685 | 32.78° C | 58% | 987.3 hPa | - | - | - | - |
| 1778064079 | 32.78° C | 57% | 987.1 hPa | - | - | - | - |
| 1778063474 | 32.78° C | 57% | 987 hPa | - | - | - | - |
| 1778062868 | 32.78° C | 58% | 987 hPa | - | - | - | - |
| 1778062263 | 32.78° C | 55% | 987 hPa | - | - | - | - |
| 1778061657 | 32.78° C | 56% | 987 hPa | - | - | - | - |
* Rain since midnight (hover to see other rain measurements)
** Current wind speed in m/s (hover to see current wind gust speed)